Flight Track Log - Related Links

Times and Time Zones

All times are in EDT time to prevent confusion due to time zone crossing. See the DAL655 flight status page for this flight to view local times or setup timezone preferences in your user account.

Time Position Orientation Groundspeed Altitude Reporting Facility
EDT Latitude Longitude Course Direction KTS MPH feet Rate Location/Type
Tue 10:10:44 AM 33.6308 -84.3806 164° South 481 554 3,000  Level Atlanta Center
Tue 10:11:49 AM 33.6000 -84.3000 115° Southeast 260 299 5,200 2,471 Climbing Atlanta TRACON
Tue 10:12:43 AM 33.5500 -84.2667 151° Southeast 286 329 7,900 2,366 Climbing Atlanta TRACON
Tue 10:14:44 AM 33.3703 -84.2378 172° South 320 368 12,100 2,287 Climbing Atlanta Center
Tue 10:15:00 AM 33.1271 -84.2026 168° South  Level FlightAware Approximate
Tue 10:15:44 AM 33.2661 -84.2203 172° South 360 414 14,800  Level Atlanta Center
Tue 10:16:00 AM 33.0073 -84.1746 164° South  Level FlightAware Approximate
Tue 10:16:44 AM 33.1617 -84.2025 172° South 377 434 17,900  Level Atlanta Center
Tue 10:17:44 AM 33.0742 -84.1900 173° South 384 442 18,700 1,250 Climbing Atlanta Center
Tue 10:18:44 AM 32.9508 -84.1578 168° South 400 460 20,400 1,800 Climbing Atlanta Center
Tue 10:19:44 AM 32.8425 -84.1081 159° South 412 474 22,300 1,750 Climbing Atlanta Center
Tue 10:20:44 AM 32.7297 -84.0636 162° South 424 488 23,900 1,600 Climbing Atlanta Center
Tue 10:21:44 AM 32.6128 -84.0142 160° South 429 494 25,500 1,500 Climbing Atlanta Center
Tue 10:22:44 AM 32.4981 -83.9675 161° South 429 494 26,900 1,300 Climbing Atlanta Center
Tue 10:23:44 AM 32.3811 -83.9208 161° South 439 505 28,100 1,361 Climbing Atlanta Center
Tue 10:25:58 AM 32.1194 -83.8125 161° South 451 519 31,300 1,454 Climbing Jacksonville Center
Tue 10:26:58 AM 32.0047 -83.7672 161° South 445 512 32,800 850 Climbing Jacksonville Center
Tue 10:27:58 AM 31.8800 -83.7097 159° South 439 505 33,000 100 Climbing Jacksonville Center
Tue 10:28:58 AM 31.7633 -83.6697 164° South 439 505 33,000  Level Jacksonville Center
Tue 10:29:58 AM 31.6489 -83.6197 160° South 439 505 33,000  Level Jacksonville Center
Tue 10:30:58 AM 31.5300 -83.5750 162° South 452 520 33,000  Level Jacksonville Center
Tue 10:31:58 AM 31.4133 -83.5303 162° South 447 514 33,000  Level Jacksonville Center
Tue 10:32:58 AM 31.2967 -83.4858 162° South 442 509 33,000  Level Jacksonville Center
Tue 10:33:58 AM 31.1800 -83.4389 161° South 442 509 33,000  Level Jacksonville Center
Tue 10:34:58 AM 31.0653 -83.3922 161° South 442 509 33,000  Level Jacksonville Center
Tue 10:35:58 AM 30.9464 -83.3481 162° South 442 509 33,000  Level Jacksonville Center
Tue 10:36:58 AM 30.8317 -83.3014 161° South 442 509 33,000  Level Jacksonville Center
Tue 10:37:58 AM 30.7233 -83.2406 154° Southeast 442 509 33,000  Level Jacksonville Center
Tue 10:38:58 AM 30.6150 -83.1653 149° Southeast 442 509 33,000  Level Jacksonville Center
Tue 10:39:58 AM 30.5106 -83.0928 149° Southeast 442 509 33,000  Level Jacksonville Center
Tue 10:40:58 AM 30.4000 -83.0228 151° Southeast 447 514 33,000  Level Jacksonville Center
Tue 10:41:58 AM 30.2936 -82.9503 150° Southeast 442 509 33,000  Level Jacksonville Center
Tue 10:42:58 AM 30.1872 -82.8781 150° Southeast 442 509 33,000  Level Jacksonville Center
Tue 10:43:58 AM 30.0806 -82.8061 150° Southeast 442 509 33,000  Level Jacksonville Center
Tue 10:44:58 AM 29.9825 -82.7464 152° Southeast 442 509 33,000  Level Jacksonville Center
Tue 10:45:58 AM 29.8781 -82.6769 150° Southeast 442 509 33,000  Level Jacksonville Center
Tue 10:46:58 AM 29.7692 -82.6006 149° Southeast 442 509 33,000  Level Jacksonville Center
Tue 10:47:58 AM 29.6647 -82.5317 150° Southeast 442 509 33,000  Level Jacksonville Center
Tue 10:48:58 AM 29.5581 -82.4606 150° Southeast 442 509 33,000  Level Jacksonville Center
Tue 10:49:58 AM 29.4472 -82.3894 151° Southeast 442 509 33,000  Level Jacksonville Center
Tue 10:50:58 AM 29.3425 -82.3208 150° Southeast 442 509 33,000  Level Jacksonville Center
Tue 10:51:58 AM 29.2336 -82.2500 150° Southeast 442 509 33,000  Level Jacksonville Center
Tue 10:52:58 AM 29.1267 -82.1794 150° Southeast 442 509 33,000  Level Jacksonville Center
Tue 10:54:48 AM 28.9342 -82.0553 151° Southeast 451 519 33,000  Level Miami Center
Tue 10:55:50 AM 28.8106 -81.9747 150° Southeast 450 518 33,000  Level Miami Center
Tue 10:56:52 AM 28.7011 -81.9044 151° Southeast 449 517 33,000  Level Miami Center
Tue 10:57:54 AM 28.5919 -81.8328 150° Southeast 450 518 33,000  Level Miami Center
Tue 10:58:56 AM 28.4889 -81.7500 145° Southeast 452 520 33,000  Level Miami Center
Tue 10:59:57 AM 28.3903 -81.6583 141° Southeast 459 528 33,000  Level Miami Center
Tue 11:00:59 AM 28.2697 -81.5503 142° Southeast 459 528 33,000  Level Miami Center
Tue 11:02:01 AM 28.1708 -81.4603 141° Southeast 460 529 33,000  Level Miami Center
Tue 11:03:03 AM 28.0594 -81.3592 141° Southeast 459 528 33,000  Level Miami Center
Tue 11:04:05 AM 27.9628 -81.2717 141° Southeast 459 528 33,000  Level Miami Center
Tue 11:05:07 AM 27.8583 -81.1781 142° Southeast 460 529 33,000  Level Miami Center
Tue 11:06:09 AM 27.7542 -81.0850 142° Southeast 460 529 33,000  Level Miami Center
Tue 11:07:11 AM 27.6653 -81.0058 142° Southeast 461 531 33,000  Level Miami Center
Tue 11:08:13 AM 27.5636 -80.9156 142° Southeast 462 532 33,000  Level Miami Center
Tue 11:09:15 AM 27.4417 -80.8072 142° Southeast 467 537 33,000  Level Miami Center
Tue 11:11:19 AM 27.2253 -80.6344 145° Southeast 456 525 33,000 290 Level Miami Center
Tue 11:12:21 AM 27.1156 -80.5642 150° Southeast 457 526 33,900 968 Climbing Miami Center
Tue 11:13:23 AM 27.0067 -80.4928 150° Southeast 456 525 35,000 532 Climbing Miami Center
Tue 11:14:25 AM 26.8992 -80.4225 150° Southeast 452 520 35,000 653 Level Miami Center
Tue 11:16:00 AM 26.7780 -80.3233 144° Southeast  Level Estimated
Tue 11:17:31 AM 26.5589 -80.1764 144° Southeast 447 514 37,700  Level Miami Center
Tue 11:18:33 AM 26.4619 -80.0964 144° Southeast 431 496 38,700 629 Climbing Miami Center
Tue 11:19:35 AM 26.3758 -80.0053 137° Southeast 427 491 39,000 145 Climbing Miami Center
Tue 11:20:37 AM 26.2839 -79.9039 135° Southeast 429 494 39,000  Level Miami Center
Tue 11:21:39 AM 26.2219 -79.8142 128° Southeast 434 499 39,000  Level Miami Center
Tue 11:22:41 AM 26.1322 -79.6847 128° Southeast 437 503 39,000  Level Miami Center
Tue 11:23:43 AM 26.0592 -79.5753 127° Southeast 438 504 39,000  Level Miami Center
Tue 11:24:45 AM 25.9853 -79.4675 127° Southeast 438 504 39,000  Level Miami Center
Tue 11:25:47 AM 25.8856 -79.3867 144° Southeast 444 511 39,000  Level Miami Center
Tue 11:26:50 AM 25.7714 -79.3283 155° Southeast 448 516 39,000  Level Miami Center
Tue 11:27:51 AM 25.6694 -79.2500 145° Southeast 450 518 39,000  Level Miami Center
Tue 11:28:53 AM 25.5875 -79.1478 132° Southeast 447 514 39,000  Level Miami Center
Tue 11:29:55 AM 25.4922 -79.0247 131° Southeast 443 510 39,000  Level Miami Center
Tue 11:30:57 AM 25.4050 -78.9169 132° Southeast 439 505 39,000  Level Miami Center
Tue 11:31:59 AM 25.3222 -78.8167 132° Southeast 440 506 39,000  Level Miami Center
Tue 11:33:01 AM 25.2422 -78.7167 131° Southeast 435 501 39,000  Level Miami Center
Tue 11:34:03 AM 25.1528 -78.6056 132° Southeast 436 502 39,000  Level Miami Center
Tue 11:35:05 AM 25.0719 -78.5058 132° Southeast 436 502 39,000  Level Miami Center
Tue 11:36:07 AM 24.9900 -78.4058 132° Southeast 436 502 39,000  Level Miami Center
Tue 11:37:09 AM 24.9089 -78.3058 132° Southeast 437 503 39,000  Level Miami Center
Tue 11:38:11 AM 24.8183 -78.1958 132° Southeast 437 503 39,000  Level Miami Center
Tue 11:39:13 AM 24.7367 -78.0958 132° Southeast 437 503 39,000  Level Miami Center
Tue 11:40:15 AM 24.6556 -77.9969 132° Southeast 437 503 39,000  Level Miami Center
Tue 11:41:17 AM 24.5650 -77.8867 132° Southeast 438 504 39,000  Level Miami Center
Tue 11:42:19 AM 24.4828 -77.7861 132° Southeast 440 506 39,000  Level Miami Center
Tue 11:43:21 AM 24.4014 -77.6875 132° Southeast 439 505 39,000  Level Miami Center
Tue 11:44:23 AM 24.3111 -77.5781 132° Southeast 439 505 39,000  Level Miami Center
Tue 11:45:25 AM 24.2292 -77.4800 132° Southeast 439 505 39,000  Level Miami Center
Tue 11:46:27 AM 24.1481 -77.3806 132° Southeast 437 503 39,000  Level Miami Center
Tue 11:47:29 AM 24.0583 -77.2736 133° Southeast 437 503 39,000  Level Miami Center
Tue 11:48:31 AM 23.9758 -77.1747 132° Southeast 437 503 39,000  Level Miami Center
Tue 11:49:33 AM 23.8944 -77.0781 133° Southeast 436 502 39,000  Level Miami Center
Tue 11:50:34 AM 23.8194 -76.9864 132° Southeast 435 501 39,000  Level Miami Center
Tue 11:51:36 AM 23.7392 -76.8906 132° Southeast 431 496 39,000  Level Miami Center
Tue 11:52:38 AM 23.6425 -76.7764 133° Southeast 429 494 39,000  Level Miami Center
Tue 11:53:40 AM 23.5631 -76.6803 132° Southeast 429 494 39,000  Level Miami Center
Tue 11:54:42 AM 23.4825 -76.5850 133° Southeast 428 493 39,000  Level Miami Center
Tue 11:55:44 AM 23.4033 -76.4906 132° Southeast 427 491 39,000  Level Miami Center
Tue 11:56:46 AM 23.3233 -76.3967 133° Southeast 425 489 39,000  Level Miami Center
Tue 11:57:47 AM 23.2450 -76.3036 132° Southeast 423 487 39,000  Level Miami Center
Tue 11:58:49 AM 23.1497 -76.1917 133° Southeast 423 487 39,000  Level Miami Center
Tue 11:59:51 AM 23.0700 -76.0992 133° Southeast 423 487 39,000  Level Miami Center
Tue 12:00:53 PM 22.9914 -76.0056 132° Southeast 422 486 39,000  Level Miami Center
Tue 12:01:55 PM 22.9122 -75.9128 133° Southeast 422 486 39,000  Level Miami Center
Tue 12:02:56 PM 22.8325 -75.8203 133° Southeast 421 484 39,000  Level Miami Center
Tue 12:03:58 PM 22.7539 -75.7261 132° Southeast 421 484 39,000  Level Miami Center
Tue 12:05:00 PM 22.6583 -75.6153 133° Southeast 421 484 39,000  Level Miami Center
Tue 12:06:02 PM 22.5775 -75.5214 133° Southeast 422 486 39,000  Level Miami Center
Tue 12:07:04 PM 22.4964 -75.4294 134° Southeast 422 486 39,000  Level Miami Center
Tue 12:08:05 PM 22.4158 -75.3344 133° Southeast 424 488 39,000  Level Miami Center
Tue 12:09:07 PM 22.3356 -75.2411 133° Southeast 424 488 39,000  Level Miami Center
Tue 12:10:09 PM 22.2542 -75.1486 134° Southeast 423 487 39,000  Level Miami Center
Tue 12:11:11 PM 22.1706 -75.0542 134° Southeast 431 496 39,000  Level Miami Center
Tue 12:12:13 PM 22.0603 -74.9517 139° Southeast 432 497 39,000  Level Miami Center
Tue 12:13:14 PM 21.9678 -74.8664 139° Southeast 433 498 39,000  Level Miami Center
Tue 12:14:16 PM 21.8753 -74.7822 140° Southeast 434 499 39,000  Level Miami Center
Tue 12:15:18 PM 21.7831 -74.6978 140° Southeast 434 499 39,000  Level Miami Center
Tue 12:16:20 PM 21.6889 -74.6108 139° Southeast 435 501 39,000  Level Miami Center
Tue 12:17:21 PM 21.5958 -74.5261 140° Southeast 436 502 39,000  Level Miami Center
Tue 12:18:23 PM 21.5028 -74.4400 139° Southeast 438 504 39,000  Level Miami Center
Tue 12:19:25 PM 21.4083 -74.3547 140° Southeast 439 505 39,000  Level Miami Center
Tue 12:20:27 PM 21.3133 -74.2683 140° Southeast 442 509 39,000  Level Miami Center
Tue 12:21:28 PM 21.2000 -74.1667 140° Southeast 444 511 39,000  Level Miami Center
Tue 12:22:30 PM 21.1056 -74.0783 139° Southeast 445 512 39,000  Level Miami Center
Tue 12:23:32 PM 21.0097 -73.9933 140° Southeast 446 513 39,000  Level Miami Center
Tue 12:24:34 PM 20.9139 -73.9061 140° Southeast 447 514 39,000  Level Miami Center
Tue 12:25:36 PM 20.8175 -73.8197 140° Southeast 447 514 39,000  Level Miami Center
Tue 12:26:37 PM 20.7231 -73.7347 140° Southeast 446 513 39,000  Level Miami Center
Tue 12:27:39 PM 20.6267 -73.6478 140° Southeast 447 514 39,000  Level Miami Center
Tue 12:28:41 PM 20.5131 -73.5450 140° Southeast 446 513 39,000  Level Miami Center
Tue 12:29:43 PM 20.4181 -73.4597 140° Southeast 446 513 39,000  Level Miami Center
Tue 12:30:44 PM 20.3217 -73.3750 140° Southeast 446 513 39,000  Level Miami Center
Tue 12:31:46 PM 20.2244 -73.2886 140° Southeast 445 512 39,000  Level Miami Center
Tue 12:32:48 PM 20.1281 -73.2075 142° Southeast 449 517 39,000  Level Miami Center
Tue 12:34:00 PM 20.0037 -73.1352 151° Southeast  Level FlightAware Approximate
Tue 12:41:00 PM 19.2774 -72.7158 152° Southeast  Level FlightAware Approximate
Tue 12:42:00 PM 19.1734 -72.6566 152° Southeast  Level FlightAware Approximate
Tue 12:43:00 PM 19.0693 -72.5975 152° Southeast  Level FlightAware Approximate
Tue 12:44:00 PM 18.9652 -72.5385 152° Southeast  Level FlightAware Approximate
Tue 12:45:00 PM 18.8611 -72.4795 152° Southeast  Level FlightAware Approximate
Tue 12:46:00 PM 18.7570 -72.4206 152° Southeast  Level FlightAware Approximate
Tue 12:47:00 PM 18.6532 -72.3613 152° Southeast  Level FlightAware Approximate
Tue 12:48:00 PM 18.5493 -72.3020 152° Southeast  Level FlightAware Approximate
Tue 12:49:00 PM 18.4454 -72.2427 152° Southeast  Level FlightAware Approximate
Tue 12:50:00 PM 18.3415 -72.1836 152° Southeast  Level FlightAware Approximate
Tue 12:51:00 PM 18.2376 -72.1245 152° Southeast  Level FlightAware Approximate
Tue 12:52:00 PM 18.1337 -72.0655 152° Southeast  Level FlightAware Approximate
Tue 12:53:00 PM 18.0297 -72.0065 152° Southeast  Level FlightAware Approximate
Tue 12:54:00 PM 17.9258 -71.9476 152° Southeast  Level FlightAware Approximate
Tue 12:55:00 PM 17.8218 -71.8888 152° Southeast  Level FlightAware Approximate
Tue 12:56:00 PM 17.7178 -71.8300 152° Southeast  Level FlightAware Approximate
Tue 12:57:00 PM 17.6137 -71.7714 152° Southeast  Level FlightAware Approximate
Tue 12:58:00 PM 17.5097 -71.7128 152° Southeast  Level FlightAware Approximate
Tue 12:59:00 PM 17.4053 -71.6549 152° Southeast  Level FlightAware Approximate
Tue 01:00:00 PM 17.3008 -71.5972 152° Southeast  Level FlightAware Approximate
Tue 01:01:00 PM 17.1964 -71.5394 152° Southeast  Level FlightAware Approximate
Tue 01:02:00 PM 17.0919 -71.4818 152° Southeast  Level FlightAware Approximate
Tue 01:03:00 PM 16.9875 -71.4242 152° Southeast  Level FlightAware Approximate
Tue 01:04:00 PM 16.8830 -71.3666 152° Southeast  Level FlightAware Approximate
Tue 01:05:00 PM 16.7785 -71.3092 152° Southeast  Level FlightAware Approximate
Tue 01:06:00 PM 16.6740 -71.2518 152° Southeast  Level FlightAware Approximate
Tue 01:07:00 PM 16.5694 -71.1944 152° Southeast  Level FlightAware Approximate
Tue 01:08:00 PM 16.4649 -71.1372 152° Southeast  Level FlightAware Approximate
Tue 01:09:00 PM 16.3603 -71.0799 152° Southeast  Level FlightAware Approximate
Tue 01:10:00 PM 16.2557 -71.0228 152° Southeast  Level FlightAware Approximate
Tue 01:11:00 PM 16.1511 -70.9657 152° Southeast  Level FlightAware Approximate
Tue 01:12:00 PM 16.0465 -70.9087 152° Southeast  Level FlightAware Approximate
Tue 01:13:00 PM 15.9421 -70.8513 152° Southeast  Level FlightAware Approximate
Tue 01:14:00 PM 15.8378 -70.7937 152° Southeast  Level FlightAware Approximate
Tue 01:15:00 PM 15.7335 -70.7361 152° Southeast  Level FlightAware Approximate
Tue 01:16:00 PM 15.6269 -70.6774 152° Southeast  Level FlightAware Approximate
Tue 01:17:00 PM 15.5202 -70.6187 152° Southeast  Level FlightAware Approximate
Tue 01:18:00 PM 15.4136 -70.5601 152° Southeast  Level FlightAware Approximate
Tue 01:19:00 PM 15.3069 -70.5015 152° Southeast  Level FlightAware Approximate
Tue 01:20:00 PM 15.2003 -70.4430 152° Southeast  Level FlightAware Approximate
Tue 01:21:00 PM 15.0936 -70.3846 152° Southeast  Level FlightAware Approximate
Tue 01:22:00 PM 14.9868 -70.3264 153° Southeast  Level FlightAware Approximate
Tue 01:23:00 PM 14.8792 -70.2697 153° Southeast  Level FlightAware Approximate
Tue 01:24:00 PM 14.7717 -70.2131 153° Southeast  Level FlightAware Approximate
Tue 01:25:00 PM 14.6647 -70.1554 150° Southeast  Level FlightAware Approximate
Tue 01:26:00 PM 14.5603 -70.0928 150° Southeast  Level FlightAware Approximate
Tue 01:27:00 PM 14.4559 -70.0302 150° Southeast  Level FlightAware Approximate
Tue 01:28:00 PM 14.3413 -70.0000 180° South  Level FlightAware Approximate
Tue 01:29:00 PM 14.2208 -69.9953 177° South  Level FlightAware Approximate
Tue 01:30:00 PM 14.1003 -69.9883 177° South  Level FlightAware Approximate
Tue 01:31:00 PM 13.9797 -69.9833 180° South  Level FlightAware Approximate
Tue 01:32:00 PM 13.8590 -69.9833 180° South  Level FlightAware Approximate
Tue 01:33:00 PM 13.7384 -69.9833 180° South  Level FlightAware Approximate
Tue 01:34:00 PM 13.6177 -69.9796 178° South  Level FlightAware Approximate
Tue 01:35:00 PM 13.4971 -69.9757 178° South  Level FlightAware Approximate
Tue 01:36:00 PM 13.3765 -69.9718 178° South  Level FlightAware Approximate
Tue 01:37:00 PM 13.2559 -69.9679 178° South  Level FlightAware Approximate
Tue 01:38:00 PM 13.1356 -69.9586 174° South  Level FlightAware Approximate
Tue 01:39:00 PM 13.0153 -69.9500 180° South  Level FlightAware Approximate
Tue 01:40:00 PM 12.8946 -69.9500 180° South  Level FlightAware Approximate
Tue 01:41:00 PM 12.7743 -69.9424 174° South  Level FlightAware Approximate
Tue 01:42:00 PM 12.6540 -69.9333 180° South  Level FlightAware Approximate
Tue 01:43:00 PM 12.5334 -69.9333 180° South  Level FlightAware Approximate
Tue 01:44:00 PM 12.5000 -70.0167 270° West  Level FlightAware Approximate
Tue 01:45:00 PM 12.5014 -70.0152 270° West  Level Estimated
Tue 01:46:00 PM 12.5000 -70.0167 270° West  Level FlightAware Approximate
Tue 01:47:00 PM 12.5014 -70.0152 270° West  Level Estimated
Tue 01:48:00 PM 12.5000 -70.0167 270° West  Level FlightAware Approximate

Login

Don't have an account? Register now (free) for customized features, flight alerts, and more!